STARLINK-32783, 62606

Orbit data source: Space-Track

STARLINK-32783, 62606 is a payload satellite owned by SpaceX/Seattle (US) in LEO that was launched on Mon, 13 Jan 2025 UTC via an FALCON 9 launch vehicle from the Air Force Eastern Test Range (AFETR). Payload-class satellites include a variety of spacecraft equipped with specific instruments for various scientific and technological missions. These include communications satellites like Starlink; space stations such as the ISS; scientific satellites like the Hubble; Earth observation satellites from companies like Planet Labs, Umbra, and HawkEye 360; GPS; miniature CubeSats for education and research; and military/defense satellites.

Loading next visibility...
Identifier
62606, 2025-008V
Orbit
LEO
Last TLE update
13 hours ago
Origin
Manufacturer
SpaceX/Seattle
Mission
Operational Commercial Communications
Bus & Motor
STARLINK V2M, Unknown motor
Mass
730 kg wet, ~700 kg dry
Launch date (UTC)
2025-01-13 (6 months ago)
Launch vehicle
FALCON 9
Launch site
Air Force Eastern Test Range (AFETR)
Object type
Payload
Rocket body
Debris
Shape & HBR
Box + 2 Pan, 29 m
Radar Cross Section
33.884 m², Large (>1 m²)

Expand to show TLE details & history

TLE from 13 hours ago
0 STARLINK-32783
1 62606U 25008V   25186.19365325  .00018776  00000-0  68996-3 0  9991
2 62606  42.9987 235.5982 0001089 244.3587 115.7152 15.27586306 27718
Epoch: 2025-07-05T04:38Z
TLE epoch observation values (Epoch: 2025-07-05T04:38:51.64Z)
Latitude
-0.00004°
Longitude
-117.55222°
Altitude
483.13 km
Speed
7.625 km/s
True Right ascension
15h 42m 23s
True Declination
0° 00' 00"
Sunlit
Object was in full shadow at epoch
Visualization orbit readout
Latitude
25.57172°
Longitude
28.66192°
Altitude
483.119 km
Speed
7.628 km/s
Apparent Right ascension
22h 17m 53s
Apparent Declination
-10° 37' 35"
Sunlit
Object is in daylight
Visualization observer readout
Local Sidereal Time
05:44:21
Azimuth
275.683° WNW
Elevation
-23.332°
Doppler factor
1
Orbital elements
Apogee altitude
485.723 km
Perigee altitude
484.228 km
Semi-major axis
6,863.113 km
Eccentricity
0.00011
Inclination
42.9987°
RAAN
235.5982°
Arg. of periapsis
244.3587°
True anomaly
Unknown
Mean anomaly
115.7152°
Eccentric anomaly
Unknown
Mean motion
3.81735 °/min
Orbital period
94.31 mins
BSTAR
0.00068996
Loading maneuver chart data...
Loading SW <> Apogee altitude chart data...
Loading historical data...
Loading historical data...
Loading historical data...
Loading historical data...
Loading historical data...
Loading historical data...
Loading historical data...

STARLINK-32783 Visibility forecast

Observer location: undefined°, undefined°

Span
Click to sort rows by Start time (UTC) header in descending order
Start Az.
Max El. time (UTC)
Max El. Az.
Max El.
End time (UTC)
End Az.
5 mins2025-07-06 05:56:56.040Z194.688° SSW2025-07-06 05:58:56.040Z156.697° SSE22.008°2025-07-06 06:01:56.040Z95.464° ESE
5 mins2025-07-06 07:35:56.040Z253.842° W2025-07-06 07:37:56.040Z302.112° NW44.893°2025-07-06 07:40:56.040Z71.235° E
5 mins2025-07-06 09:14:56.040Z290.855° WNW2025-07-06 09:16:56.040Z346.328° N37.67°2025-07-06 09:19:56.040Z73.345° E
6 mins2025-07-06 10:53:56.040Z289.342° WNW2025-07-06 10:55:56.040Z300.682° NW43.484°2025-07-06 10:59:56.040Z107.052° ESE
5 mins2025-07-06 12:32:56.040Z257.555° W2025-07-06 12:34:56.040Z214.506° SW22.527°2025-07-06 12:37:56.040Z158.953° S
|